Change the Weather History Date:

Wednesday, February 5, 2014

  Actual Average Record
Temperature  
Mean Temperature 11 °F 37 °F  
Max Temperature 14 °F 45 °F 65 °F (2015)
Min Temperature 8 °F 30 °F -12 °F (1989)
Degree Days  
Heating Degree Days 54 28  
Month to date heating degree days 210 140  
Since 1 July heating degree days 3593 3298  
Cooling Degree Days 0 0  
Month to date cooling degree days 0 0  
Year to date cooling degree days 0 0  
Moisture  
Dew Point 4 °F    
Average Humidity 75    
Maximum Humidity 83    
Minimum Humidity 66    
Precipitation  
Precipitation 0.00 in 0.04 in 0.58 in (1897)
Month to date precipitation 0.13 0.19  
Year to date precipitation 0.86 1.62  
Snow  
Snow T in 0.10 in 2.40 in (1972)
Month to date snowfall 2.9 0.6  
Year to date snowfall 2.9 4.3  
Since 1 July snowfall 9.4 11.8  
Snow Depth 1.00 in    
Sea Level Pressure  
Sea Level Pressure 30.48 in    
Wind  
Wind Speed 5 mph (West)    
Max Wind Speed 12 mph    
Max Gust Speed 13 mph    
Visibility 10 miles    
Events      
T = Trace of Precipitation, MM = Missing Value Source: NWS Daily Summary

Daily Weather History Graph

Daily Weather History Graph

Search for Another Location

Airport or City:

Trip Planner

Search our weather history database for the weather conditions in past years. The results will help you decide how hot, cold, wet, or windy it might be!

Date:

Astronomy

Feb. 05, 2014 Rise Set
Actual Time 7:11 AM PST 5:07 PM PST
Civil Twilight 6:40 AM PST 5:39 PM PST
Nautical Twilight 6:05 AM PST 6:14 PM PST
Astronomical Twilight 5:30 AM PST 6:49 PM PST
Moon 10:07 AM PST (2/5) No Moon Set
Length of Visible Light 10h 58m
Length of Day
9h 55m
Waxing Crescent, 40% of the Moon is Illuminated
Feb 5
Waxing Crescent
Feb 6
First Quarter
Feb 14
Full
Feb 22
Last Quarter
Mar 1
New

Hourly Weather History & Observations

Time (PST) Temp. Windchill Dew Point Humidity Pressure Visibility Wind Dir Wind Speed Gust Speed Precip Events Conditions
12:53 AM 12.0 °F - 6.1 °F 77% 30.45 in 10.0 mi Calm Calm - N/A   Overcast
1:53 AM 10.0 °F 3.6 °F 5.0 °F 80% 30.47 in 10.0 mi NNW 3.5 mph - N/A   Overcast
2:53 AM 9.0 °F 0.6 °F 5.0 °F 84% 30.47 in 10.0 mi NW 4.6 mph - N/A   Overcast
3:53 AM 10.9 °F 0.2 °F 3.9 °F 73% 30.48 in 10.0 mi WNW 6.9 mph - N/A   Overcast
4:53 AM 10.0 °F 0.4 °F 3.9 °F 76% 30.49 in 10.0 mi WNW 5.8 mph - N/A   Overcast
5:53 AM 9.0 °F -5.1 °F 3.0 °F 77% 30.50 in 10.0 mi NW 10.4 mph - N/A   Overcast
6:53 AM 8.1 °F -3.2 °F 1.9 °F 76% 30.51 in 10.0 mi NW 6.9 mph - N/A   Overcast
7:53 AM 9.0 °F -2.2 °F 1.9 °F 73% 30.54 in 10.0 mi WNW 6.9 mph - N/A   Overcast
8:53 AM 9.0 °F -3.2 °F 3.0 °F 77% 30.55 in 10.0 mi WNW 8.1 mph - N/A   Overcast
9:53 AM 10.0 °F 0.4 °F 3.0 °F 73% 30.56 in 10.0 mi WNW 5.8 mph - N/A   Overcast
10:53 AM 10.0 °F -0.9 °F 1.9 °F 70% 30.56 in 10.0 mi WNW 6.9 mph - N/A   Overcast
11:53 AM 10.9 °F 2.9 °F 1.9 °F 67% 30.54 in 7.0 mi WNW 4.6 mph - N/A   Overcast
12:37 PM 10.9 °F 1.4 °F 3.0 °F 70% 30.47 in 6.0 mi West 5.8 mph - N/A   Haze
12:53 PM 10.9 °F 2.9 °F 3.0 °F 70% 30.54 in 7.0 mi Variable 4.6 mph - N/A   Overcast
1:30 PM 10.9 °F 2.9 °F 3.9 °F 73% 30.45 in 10.0 mi SW 4.6 mph - N/A   Overcast
1:53 PM 12.0 °F 4.1 °F 3.9 °F 70% 30.52 in 9.0 mi Variable 4.6 mph - N/A   Overcast
2:53 PM 12.0 °F 4.1 °F 3.9 °F 70% 30.51 in 10.0 mi Variable 4.6 mph - N/A   Overcast
3:53 PM 12.0 °F 2.7 °F 5.0 °F 73% 30.50 in 10.0 mi South 5.8 mph - N/A   Overcast
4:51 PM 10.4 °F -1.5 °F 3.2 °F 73% 30.42 in 10.0 mi South 8.1 mph - N/A   Overcast
4:53 PM 10.9 °F -0.8 °F 3.9 °F 73% 30.49 in 10.0 mi South 8.1 mph - N/A   Overcast
5:53 PM 10.0 °F 1.8 °F 3.9 °F 76% 30.49 in 10.0 mi South 4.6 mph - N/A   Overcast
6:53 PM 12.0 °F - 5.0 °F 73% 30.48 in 10.0 mi Calm Calm - N/A   Overcast
7:53 PM 12.0 °F - 6.1 °F 77% 30.45 in 10.0 mi Calm Calm - N/A   Overcast
8:53 PM 12.0 °F - 6.1 °F 77% 30.44 in 10.0 mi Calm Calm - N/A   Overcast
9:45 PM 10.0 °F 3.6 °F 6.1 °F 84% 30.36 in 10.0 mi East 3.5 mph - N/A   Overcast
9:53 PM 10.0 °F 3.6 °F 6.1 °F 84% 30.43 in 10.0 mi East 3.5 mph - N/A   Overcast
10:53 PM 12.0 °F 5.9 °F 7.0 °F 80% 30.42 in 10.0 mi ESE 3.5 mph - N/A   Overcast
11:53 PM 10.0 °F - 6.1 °F 84% 30.41 in 10.0 mi Calm Calm - N/A   Overcast